Roanoke, VA

10:20 PM EST on December 11, 2019 (GMT -0500)
Roanoke Regional-Woodrum

Weather History for KROA - October, 2019

Change the Weather History Date:

Friday, October 18, 2019

  Actual Average Record
Temperature  
Mean Temperature 55 °F 57 °F  
Max Temperature 67 °F 68 °F 91 °F (1938)
Min Temperature 42 °F 46 °F 28 °F (1978)
Degree Days  
Heating Degree Days 10 8  
Month to date heating degree days 57 115  
Since 1 July heating degree days 58 164  
Cooling Degree Days 0 0  
Month to date cooling degree days 73 18  
Year to date cooling degree days 1757 1204  
Growing Degree Days 6 (Base 50)    
Moisture  
Dew Point 35 °F    
Average Humidity 53    
Maximum Humidity 76    
Minimum Humidity 29    
Precipitation  
Precipitation 0.00 in 0.09 in 3.43 in (1968)
Month to date precipitation 1.60 1.63  
Year to date precipitation 33.66 33.65  
Snow  
Snow 0.00 in - - ()
Month to date snowfall 0.0  
Since 1 July snowfall T  
Since 1 September snowfall 0.0  
Snow Depth 0.00 in    
Sea Level Pressure  
Sea Level Pressure 30.02 in    
Wind  
Wind Speed 5 mph (NNW)    
Max Wind Speed 17 mph    
Max Gust Speed 23 mph    
Visibility 10 miles    
Events      
T = Trace of Precipitation, MM = Missing Value Source: NWS Daily Summary

Daily Weather History Graph

Daily Weather History Graph

Search for Another Location

Airport or City:

Astronomy

Oct. 18, 2019 Rise Set
Actual Time 7:30 AM EDT 6:39 PM EDT
Civil Twilight 7:04 AM EDT 7:05 PM EDT
Nautical Twilight 6:33 AM EDT 7:35 PM EDT
Astronomical Twilight 6:03 AM EDT 8:05 PM EDT
Moon 9:59 PM EDT (10/18) 11:57 AM EDT (10/18)
Length of Visible Light 12h 01m
Length of Day
11h 08m
Waning Gibbous, 79% of the Moon is Illuminated
Oct 18
Waning Gibbous
Oct 21
Last Quarter
Oct 27
New
Nov 4
First Quarter
Nov 12
Full

Hourly Weather History & Observations

Time (EDT) Temp. Windchill Dew Point Humidity Pressure Visibility Wind Dir Wind Speed Gust Speed Precip Events Conditions
12:54 AM 52.0 °F - 34.0 °F 50% 29.96 in 10.0 mi North 11.5 mph 21.9 mph N/A   Scattered Clouds
1:54 AM 50.0 °F - 34.0 °F 54% 29.96 in 10.0 mi North 9.2 mph - N/A   Scattered Clouds
2:54 AM 50.0 °F - 35.1 °F 57% 29.96 in 10.0 mi Variable 5.8 mph - N/A   Scattered Clouds
3:54 AM 46.9 °F - 35.1 °F 63% 29.96 in 10.0 mi NNW 5.8 mph - N/A   Partly Cloudy
4:54 AM 46.9 °F - 34.0 °F 61% 29.98 in 10.0 mi NW 11.5 mph - N/A   Clear
5:54 AM 46.0 °F 40.6 °F 35.1 °F 66% 30.00 in 10.0 mi WNW 11.5 mph - N/A   Clear
6:54 AM 48.0 °F - 34.0 °F 58% 30.02 in 10.0 mi NNW 8.1 mph - N/A   Clear
7:54 AM 46.9 °F - 34.0 °F 61% 30.04 in 10.0 mi NNW 6.9 mph - N/A   Clear
8:29 AM 48.0 °F - 36.0 °F 63% 30.04 in 2.5 mi WSW 3.5 mph - N/A   Haze
8:37 AM 48.9 °F - 36.0 °F 61% 30.04 in 10.0 mi Calm Calm - N/A   Clear
8:54 AM 52.0 °F - 35.1 °F 53% 30.04 in 10.0 mi Calm Calm - N/A   Clear
9:54 AM 54.0 °F - 36.0 °F 51% 30.04 in 10.0 mi North 8.1 mph - N/A   Clear
10:54 AM 55.9 °F - 34.0 °F 44% 30.06 in 10.0 mi North - - N/A   Clear
10:57 AM 55.9 °F - 34.0 °F 44% 30.07 in 10.0 mi Variable 4.6 mph - N/A   Clear
11:54 AM 57.0 °F - 33.1 °F 40% 30.05 in 10.0 mi NNW 17.3 mph 23.0 mph N/A   Clear
12:54 PM 59.0 °F - 35.1 °F 41% 30.05 in 10.0 mi NNE 5.8 mph - N/A   Clear
1:54 PM 62.1 °F - 35.1 °F 37% 30.02 in 10.0 mi Variable 6.9 mph - N/A   Clear
2:54 PM 63.0 °F - 34.0 °F 34% 30.01 in 10.0 mi Variable 4.6 mph - N/A   Clear
3:54 PM 64.0 °F - 34.0 °F 33% 30.02 in 10.0 mi Calm Calm - N/A   Clear
4:54 PM 66.0 °F - 34.0 °F 30% 30.01 in 10.0 mi NNW 5.8 mph - N/A   Clear
5:54 PM 64.0 °F - 34.0 °F 33% 30.01 in 10.0 mi North 8.1 mph - N/A   Clear
6:54 PM 60.1 °F - 33.1 °F 36% 30.02 in 10.0 mi NNE 8.1 mph - N/A   Clear
7:54 PM 55.0 °F - 36.0 °F 49% 30.04 in 10.0 mi SE 3.5 mph - N/A   Clear
8:54 PM 50.0 °F - 37.0 °F 61% 30.05 in 10.0 mi NNW 3.5 mph - N/A   Clear
9:54 PM 46.0 °F - 37.9 °F 73% 30.06 in 10.0 mi Calm Calm - N/A   Clear
10:54 PM 46.9 °F - 37.9 °F 71% 30.08 in 10.0 mi Calm Calm - N/A   Clear
11:54 PM 44.1 °F - 37.9 °F 79% 30.07 in 10.0 mi Calm Calm - N/A   Clear